QPF
0.00 0.00 0.00 0.00 0.00 0.00 0.00 0.00 0.00 0.00 0.00 0.00 0.00 0.00 0.00 0.00 0.00 0.00 0.00 0.00 0.00 0.00 0.00 0.00 0.00 0.00 0.00 0.00 0.00 0.00 0.00 0.00 0.00 0.00 0.00 0.00 0.00 0.00 0.00 0.03 0.04 0.05 0.07
0.00 0.00 0.00 0.00 0.00 0.00 0.00 0.00 0.00 0.00 0.00 0.00 0.00 0.00 0.00 0.00 0.00 0.00 0.00 0.00 0.00 0.00 0.00 0.00 0.00 0.00 0.00 0.00 0.00 0.00 0.00 0.00 0.00 0.00 0.00 0.00 0.00 0.00 0.00 0.00 0.02 0.05 0.05
0.00 0.00 0.00 0.00 0.00 0.00 0.00 0.00 0.00 0.00 0.00 0.00 0.00 0.00 0.00 0.00 0.00 0.00 0.00 0.00 0.00 0.00 0.00 0.00 0.00 0.00 0.00 0.00 0.00 0.00 0.00 0.00 0.00 0.00 0.00 0.00 0.01 0.00 0.00 0.00 0.00 0.02 0.04
0.00 0.00 0.00 0.00 0.00 0.00 0.00 0.00 0.00 0.00 0.00 0.00 0.00 0.00 0.00 0.00 0.00 0.00 0.00 0.00 0.00 0.00 0.00 0.00 0.00 0.00 0.00 0.00 0.00 0.00 0.00 0.00 0.00 0.00 0.00 0.00 0.00 0.00 0.00 0.00 0.00 0.00 0.02
0.00 0.00 0.00 0.00 0.00 0.00 0.00 0.00 0.00 0.00 0.00 0.00 0.00 0.00 0.00 0.00 0.00 0.00 0.00 0.00 0.00 0.00 0.00 0.00 0.00 0.00 0.00 0.00 0.00 0.00 0.00 0.00 0.00 0.00 0.00 0.00 0.00 0.00 0.00 0.00 0.00 0.00 0.00
0.00 0.00 0.00 0.00 0.00 0.00 0.00 0.00 0.00 0.00 0.00 0.00 0.00 0.00 0.00 0.00 0.00 0.00 0.00 0.00 0.00 0.00 0.00 0.00 0.00 0.00 0.00 0.00 0.00 0.00 0.00 0.00 0.00 0.00 0.00 0.00 0.00 0.00 0.00 0.00 0.00 0.00 0.00
0.00 0.00 0.00 0.00 0.00 0.00 0.00 0.00 0.00 0.00 0.00 0.00 0.00 0.00 0.00 0.00 0.00 0.00 0.00 0.00 0.00 0.00 0.00 0.00 0.00 0.00 0.00 0.00 0.00 0.00 0.00 0.00 0.00 0.00 0.00 0.00 0.00 0.00 0.00 0.00 0.00 0.00 0.00
0.00 0.00 0.00 0.00 0.00 0.00 0.00 0.00 0.00 0.00 0.00 0.00 0.00 0.00 0.00 0.00 0.00 0.00 0.00 0.00 0.00 0.00 0.00 0.00 0.00 0.00 0.00 0.00 0.00 0.00 0.00 0.00 0.00 0.00 0.00 0.00 0.00 0.00 0.00 0.00 0.00 0.00 0.00
0.00 0.00 0.00 0.00 0.00 0.00 0.00 0.00 0.00 0.00 0.00 0.00 0.00 0.00 0.00 0.00 0.00 0.00 0.00 0.00 0.00 0.00 0.00 0.00 0.00 0.00 0.00 0.00 0.00 0.00 0.00 0.00 0.00 0.00 0.00 0.00 0.00 0.00 0.00 0.00 0.00 0.00 0.00
0.00 0.00 0.00 0.00 0.00 0.00 0.00 0.00 0.00 0.00 0.00 0.00 0.00 0.00 0.00 0.00 0.00 0.00 0.00 0.00 0.00 0.00 0.00 0.00 0.00 0.00 0.00 0.00 0.00 0.00 0.00 0.00 0.00 0.00 0.00 0.00 0.00 0.00 0.00 0.00 0.00 0.00 0.00
0.00 0.00 0.00 0.00 0.00 0.00 0.00 0.00 0.00 0.00 0.00 0.00 0.00 0.00 0.00 0.00 0.00 0.00 0.00 0.00 0.00 0.00 0.00 0.00 0.00 0.00 0.00 0.00 0.00 0.00 0.00 0.00 0.00 0.00 0.00 0.00 0.00 0.00 0.00 0.00 0.00 0.00 0.00
0.00 0.00 0.00 0.00 0.00 0.00 0.00 0.00 0.00 0.00 0.00 0.00 0.00 0.00 0.00 0.00 0.00 0.00 0.00 0.00 0.00 0.00 0.00 0.00 0.00 0.00 0.00 0.00 0.00 0.00 0.00 0.00 0.00 0.00 0.00 0.00 0.00 0.00 0.00 0.00 0.00 0.00 0.00
0.00 0.00 0.00 0.00 0.00 0.00 0.00 0.00 0.00 0.00 0.00 0.00 0.00 0.00 0.00 0.00 0.00 0.00 0.00 0.00 0.00 0.00 0.00 0.00 0.00 0.00 0.00 0.00 0.00 0.00 0.00 0.00 0.00 0.00 0.00 0.00 0.00 0.00 0.00 0.00 0.00 0.00 0.00
0.00 0.00 0.00 0.00 0.00 0.00 0.00 0.00 0.00 0.00 0.00 0.00 0.00 0.00 0.00 0.00 0.00 0.00 0.00 0.00 0.00 0.00 0.00 0.00 0.00 0.00 0.00 0.00 0.00 0.00 0.00 0.00 0.00 0.00 0.00 0.00 0.00 0.00 0.00 0.00 0.00 0.00 0.00
0.00 0.00 0.00 0.00 0.00 0.00 0.00 0.00 0.00 0.00 0.00 0.00 0.00 0.00 0.00 0.00 0.00 0.00 0.00 0.00 0.00 0.00 0.00 0.00 0.00 0.00 0.00 0.00 0.00 0.00 0.00 0.00 0.00 0.00 0.00 0.00 0.00 0.00 0.00 0.00 0.00 0.00 0.00
0.00 0.00 0.00 0.00 0.00 0.00 0.00 0.00 0.00 0.00 0.00 0.00 0.00 0.00 0.00 0.00 0.00 0.00 0.00 0.00 0.00 0.00 0.00 0.00 0.00 0.00 0.00 0.00 0.00 0.00 0.00 0.00 0.00 0.00 0.00 0.00 0.00 0.00 0.00 0.00 0.00 0.00 0.00
0.00 0.00 0.00 0.00 0.00 0.00 0.00 0.00 0.00 0.00 0.00 0.00 0.00 0.00 0.00 0.00 0.00 0.00 0.00 0.00 0.00 0.00 0.00 0.00 0.00 0.00 0.00 0.00 0.00 0.00 0.00 0.00 0.00 0.00 0.00 0.00 0.00 0.00 0.00 0.00 0.00 0.00 0.00
0.00 0.00 0.00 0.00 0.00 0.00 0.00 0.00 0.00 0.00 0.00 0.00 0.00 0.00 0.00 0.00 0.00 0.00 0.00 0.00 0.00 0.00 0.00 0.00 0.00 0.00 0.00 0.00 0.00 0.00 0.00 0.00 0.00 0.00 0.00 0.00 0.00 0.00 0.00 0.00 0.00 0.00 0.00
0.00 0.00 0.00 0.00 0.00 0.00 0.00 0.00 0.00 0.00 0.00 0.00 0.00 0.00 0.00 0.00 0.00 0.00 0.00 0.00 0.00 0.00 0.00 0.00 0.00 0.00 0.00 0.00 0.00 0.00 0.00 0.00 0.00 0.00 0.00 0.00 0.00 0.00 0.00 0.00 0.00 0.00 0.00
0.00 0.00 0.00 0.00 0.00 0.00 0.00 0.00 0.00 0.00 0.00 0.00 0.00 0.00 0.00 0.00 0.00 0.00 0.00 0.00 0.00 0.00 0.00 0.00 0.00 0.00 0.00 0.00 0.00 0.00 0.00 0.00 0.00 0.00 0.00 0.00 0.00 0.00 0.00 0.00 0.00 0.00 0.00
0.00 0.00 0.00 0.00 0.00 0.00 0.00 0.00 0.00 0.00 0.00 0.00 0.00 0.00 0.00 0.00 0.00 0.00 0.00 0.00 0.00 0.00 0.00 0.00 0.00 0.00 0.00 0.00 0.00 0.00 0.00 0.00 0.00 0.00 0.00 0.00 0.00 0.00 0.00 0.00 0.00 0.00 0.00
0.00 0.00 0.00 0.00 0.00 0.00 0.00 0.00 0.00 0.00 0.00 0.00 0.00 0.00 0.00 0.00 0.00 0.00 0.00 0.00 0.00 0.00 0.00 0.00 0.00 0.00 0.00 0.00 0.00 0.00 0.00 0.00 0.00 0.00 0.00 0.00 0.00 0.00 0.00 0.00 0.00 0.00 0.00
0.00 0.00 0.00 0.00 0.00 0.00 0.00 0.00 0.00 0.00 0.00 0.00 0.00 0.00 0.00 0.00 0.00 0.00 0.00 0.00 0.00 0.00 0.00 0.00 0.00 0.00 0.00 0.00 0.00 0.00 0.00 0.01 0.01 0.00 0.00 0.00 0.00 0.00 0.00 0.00 0.00 0.00 0.00
0.00 0.00 0.00 0.00 0.00 0.00 0.00 0.00 0.00 0.00 0.00 0.00 0.00 0.00 0.00 0.00 0.00 0.00 0.00 0.00 0.00 0.00 0.00 0.00 0.00 0.00 0.00 0.00 0.00 0.00 0.00 0.00 0.01 0.01 0.01 0.01 0.00 0.00 0.00 0.00 0.00 0.00 0.00
0.00 0.00 0.00 0.00 0.00 0.00 0.00 0.00 0.00 0.00 0.00 0.00 0.00 0.00 0.00 0.00 0.00 0.00 0.00 0.00 0.00 0.00 0.00 0.00 0.00 0.00 0.00 0.00 0.00 0.00 0.00 0.00 0.00 0.00 0.01 0.01 0.01 0.00 0.00 0.00 0.00 0.00 0.00
0.00 0.00 0.00 0.00 0.00 0.00 0.00 0.00 0.00 0.00 0.00 0.00 0.00 0.00 0.00 0.00 0.00 0.00 0.00 0.00 0.00 0.00 0.00 0.00 0.00 0.00 0.00 0.01 0.01 0.02 0.02 0.02 0.01 0.00 0.00 0.00 0.00 0.00 0.00 0.00 0.00 0.00 0.00
MSLP
1020.59 1020.63 1020.75 1020.92 1021.09 1021.38 1021.60 1021.79 1021.78 1021.59 1021.75 1021.76 1021.81 1021.75 1021.78 1021.61 1021.58 1021.42 1021.38 1021.40 1021.48 1021.45 1021.43 1021.29 1021.11 1020.81 1020.68 1020.13 1020.07 1019.78 1019.02 1018.27 1017.89 1016.61 1014.59 1012.71 1011.65 1011.02 1010.53 1010.96 1010.70 1010.88 1009.87
1020.67 1020.56 1020.66 1020.88 1021.17 1021.46 1021.69 1021.76 1021.65 1021.44 1021.31 1021.39 1021.40 1021.56 1021.69 1021.66 1021.62 1021.34 1021.30 1021.17 1021.27 1021.19 1021.11 1020.97 1020.89 1020.68 1020.48 1020.12 1019.72 1019.89 1019.49 1018.56 1018.27 1017.89 1016.79 1013.77 1011.45 1010.75 1010.46 1010.03 1010.42 1010.26 1009.73
1020.60 1020.49 1020.55 1020.78 1021.22 1021.65 1021.81 1021.72 1021.55 1021.28 1021.16 1021.11 1021.08 1021.27 1021.52 1021.65 1021.52 1021.30 1021.44 1021.21 1021.09 1021.04 1020.91 1020.74 1020.60 1020.37 1020.18 1020.00 1019.75 1019.39 1019.76 1019.04 1018.38 1018.40 1018.40 1016.33 1013.44 1011.56 1010.27 1010.26 1010.51 1009.99 1009.33
1020.49 1020.56 1020.58 1020.94 1021.35 1021.54 1021.59 1021.38 1021.25 1021.21 1021.01 1021.01 1021.14 1021.52 1021.72 1021.86 1021.50 1021.47 1021.35 1021.25 1021.08 1020.86 1020.64 1020.37 1020.18 1019.99 1019.76 1019.66 1019.48 1019.20 1019.02 1019.24 1018.53 1018.13 1017.69 1017.71 1016.75 1014.37 1011.19 1010.29 1010.25 1010.31 1009.62
1020.34 1020.53 1020.75 1020.96 1021.16 1021.36 1021.37 1021.26 1021.23 1021.13 1021.08 1020.95 1021.02 1021.23 1021.60 1021.60 1021.37 1021.18 1021.33 1021.07 1020.85 1020.81 1020.48 1020.10 1019.80 1019.62 1019.38 1019.19 1019.09 1018.88 1018.61 1018.64 1018.52 1018.16 1017.80 1017.23 1016.62 1015.69 1014.34 1011.31 1010.72 1010.54 1010.45
1020.57 1020.69 1020.81 1020.95 1021.25 1021.33 1021.26 1021.09 1021.02 1021.22 1021.14 1021.04 1020.91 1021.00 1021.35 1021.48 1021.26 1021.13 1021.25 1021.11 1020.93 1020.66 1020.28 1019.89 1019.52 1019.26 1019.01 1018.85 1018.57 1018.51 1018.44 1018.04 1018.16 1017.60 1017.50 1017.57 1016.94 1015.87 1015.19 1013.96 1011.31 1010.67 1010.87
1021.03 1021.10 1021.20 1021.38 1021.56 1021.54 1021.60 1021.47 1021.29 1021.15 1020.97 1020.86 1020.83 1020.94 1021.12 1021.07 1021.20 1021.12 1020.98 1020.88 1020.60 1020.40 1020.05 1019.71 1019.32 1018.98 1018.61 1018.41 1018.16 1018.08 1017.90 1017.77 1017.51 1017.52 1017.07 1016.92 1016.60 1016.69 1016.20 1015.19 1013.04 1011.19 1010.51
1021.13 1021.35 1021.56 1021.78 1021.84 1021.74 1021.62 1021.40 1021.48 1021.27 1020.96 1020.98 1020.93 1020.75 1020.70 1020.77 1020.86 1020.70 1020.45 1020.21 1020.15 1019.87 1019.53 1019.36 1019.00 1018.63 1018.24 1018.05 1017.82 1017.56 1017.38 1017.52 1017.29 1016.97 1016.91 1016.55 1016.16 1016.71 1016.03 1015.45 1014.65 1012.96 1011.01
1021.41 1021.49 1021.57 1021.59 1021.67 1021.68 1021.47 1021.57 1021.48 1021.33 1021.00 1021.02 1020.76 1020.59 1020.47 1020.44 1020.43 1020.16 1019.90 1019.65 1019.48 1019.32 1018.92 1018.85 1018.69 1018.29 1017.85 1017.61 1017.52 1017.22 1016.80 1016.62 1016.68 1016.76 1016.36 1016.36 1016.36 1016.74 1015.90 1015.85 1015.04 1014.76 1012.46
1021.85 1021.87 1021.70 1021.60 1021.37 1021.26 1021.21 1021.38 1021.26 1021.38 1021.00 1020.87 1020.68 1020.46 1020.54 1020.32 1019.95 1019.70 1019.54 1019.34 1018.98 1018.82 1018.63 1018.41 1018.28 1017.93 1017.51 1017.22 1017.12 1016.87 1016.66 1016.31 1016.11 1016.02 1016.10 1016.21 1016.25 1016.09 1015.80 1015.95 1015.55 1014.49 1014.10
1021.86 1021.70 1021.50 1021.40 1021.35 1021.20 1021.07 1020.97 1020.92 1020.85 1020.71 1020.68 1020.60 1020.45 1020.04 1019.81 1019.61 1019.38 1019.04 1018.78 1018.79 1018.48 1018.20 1017.98 1017.84 1017.58 1017.12 1016.82 1016.61 1016.42 1016.41 1016.21 1015.90 1015.94 1015.91 1015.76 1015.74 1015.79 1015.72 1015.51 1015.20 1014.95 1014.36
1021.74 1021.54 1021.16 1020.98 1020.95 1020.95 1020.83 1020.65 1020.60 1020.61 1020.48 1020.36 1020.31 1020.00 1019.89 1019.61 1019.26 1019.00 1018.64 1018.43 1018.42 1018.12 1017.76 1017.48 1017.34 1017.13 1016.68 1016.45 1016.08 1015.93 1015.88 1015.84 1015.60 1015.47 1015.60 1015.52 1015.64 1015.35 1015.30 1015.00 1014.72 1014.41 1014.40
1021.44 1021.20 1021.05 1020.93 1020.90 1020.86 1020.62 1020.39 1020.29 1020.23 1020.08 1020.13 1019.93 1019.78 1019.55 1019.33 1018.82 1018.59 1018.40 1018.07 1017.92 1017.69 1017.29 1016.98 1016.80 1016.52 1016.17 1015.98 1015.58 1015.37 1015.29 1015.34 1015.28 1015.18 1015.22 1014.89 1014.83 1015.15 1015.07 1014.35 1014.37 1014.40 1014.04
1021.67 1021.49 1021.53 1020.92 1020.57 1020.41 1020.31 1020.11 1019.85 1019.90 1019.84 1019.74 1019.63 1019.34 1019.07 1018.71 1018.37 1018.22 1018.06 1017.77 1017.19 1016.99 1016.76 1016.42 1016.13 1015.84 1015.53 1015.31 1015.03 1014.83 1014.62 1014.60 1014.71 1014.64 1014.32 1014.64 1014.76 1015.00 1014.50 1014.15 1014.08 1014.17 1014.21
1021.65 1021.39 1021.04 1020.87 1020.68 1020.45 1020.13 1019.84 1019.67 1019.52 1019.40 1019.24 1019.00 1018.76 1018.39 1017.95 1017.80 1017.70 1017.42 1017.04 1016.57 1016.28 1016.03 1015.74 1015.43 1015.10 1014.76 1014.45 1014.28 1014.09 1013.97 1013.80 1013.78 1013.85 1014.34 1014.04 1014.04 1014.14 1013.70 1013.69 1013.64 1013.80 1013.76
1021.50 1021.50 1021.37 1020.95 1020.56 1020.06 1019.91 1019.53 1019.20 1019.08 1018.98 1018.72 1018.46 1018.05 1017.69 1017.42 1017.18 1016.95 1016.70 1016.29 1015.94 1015.69 1015.40 1014.99 1014.70 1014.25 1013.86 1013.57 1013.27 1012.89 1012.87 1012.80 1012.78 1012.81 1012.89 1013.00 1013.19 1012.95 1012.95 1012.91 1012.99 1013.19 1013.10
1021.60 1021.37 1021.13 1020.65 1020.08 1019.72 1019.56 1019.50 1019.04 1018.85 1018.72 1018.34 1017.86 1017.37 1017.05 1016.78 1016.51 1016.21 1015.85 1015.50 1015.30 1015.05 1014.66 1014.24 1013.93 1013.43 1012.95 1012.73 1012.44 1012.02 1011.83 1011.76 1011.72 1011.79 1012.06 1012.40 1012.27 1012.22 1012.49 1012.66 1012.49 1012.70 1012.57
1021.16 1020.96 1020.61 1020.14 1019.61 1019.08 1019.02 1018.83 1018.52 1018.20 1017.92 1017.43 1016.83 1016.47 1016.13 1015.81 1015.56 1015.29 1014.97 1014.67 1014.41 1014.19 1013.89 1013.46 1013.03 1012.79 1012.01 1011.85 1011.58 1011.20 1010.99 1010.92 1010.79 1010.74 1010.95 1011.26 1011.31 1011.48 1011.91 1012.34 1012.36 1012.36 1012.23
1020.38 1020.28 1020.00 1019.61 1019.07 1018.72 1018.48 1018.40 1018.10 1017.77 1017.36 1016.63 1016.11 1015.66 1015.47 1015.04 1014.68 1014.38 1014.10 1013.77 1013.57 1013.28 1012.90 1012.51 1012.10 1011.90 1011.18 1010.92 1010.79 1010.54 1010.36 1010.18 1010.07 1010.01 1009.96 1010.24 1010.54 1010.90 1011.10 1011.50 1011.77 1011.94 1011.96
1019.75 1019.71 1019.35 1019.03 1018.64 1017.87 1017.87 1017.99 1017.42 1016.90 1016.22 1015.50 1014.91 1014.56 1014.48 1014.33 1013.93 1013.55 1013.21 1012.84 1012.70 1012.33 1011.97 1011.40 1011.10 1010.78 1010.24 1009.79 1009.61 1009.53 1009.54 1009.40 1009.30 1009.23 1009.31 1009.31 1009.68 1010.08 1010.20 1010.45 1010.69 1010.89 1010.96
1019.34 1018.89 1018.78 1018.55 1017.88 1017.42 1017.46 1017.40 1016.88 1016.24 1015.22 1014.60 1013.93 1013.58 1013.49 1013.41 1013.15 1012.76 1012.36 1011.96 1011.68 1011.41 1011.01 1010.58 1010.06 1009.76 1009.44 1009.02 1008.64 1008.49 1008.38 1008.36 1008.24 1008.17 1008.11 1008.24 1008.37 1008.65 1008.94 1009.30 1009.72 1010.22 1010.90
1018.62 1018.28 1018.15 1017.60 1016.89 1016.64 1016.81 1016.60 1016.22 1015.21 1014.44 1013.82 1013.20 1012.87 1012.76 1012.58 1012.14 1011.83 1011.35 1010.99 1010.71 1010.48 1009.95 1009.62 1008.99 1008.48 1008.21 1007.96 1007.52 1007.18 1007.04 1007.03 1007.04 1006.97 1007.17 1007.30 1007.40 1007.45 1007.85 1008.17 1008.62 1009.09 1009.69
1017.83 1017.35 1017.18 1016.53 1015.86 1015.81 1015.86 1015.84 1014.95 1014.48 1013.73 1013.18 1012.60 1012.25 1011.91 1011.64 1011.28 1010.96 1010.48 1010.15 1009.73 1009.39 1008.85 1008.42 1007.90 1007.24 1006.95 1006.69 1006.43 1006.04 1005.70 1005.46 1005.60 1005.78 1005.98 1006.26 1006.42 1006.52 1006.72 1006.93 1007.37 1008.06 1008.47
1016.97 1016.59 1016.18 1015.79 1015.18 1014.89 1014.61 1014.48 1014.12 1013.56 1013.16 1012.52 1012.04 1011.59 1011.18 1010.73 1010.32 1009.94 1009.51 1009.06 1008.64 1008.34 1007.82 1007.28 1006.81 1006.25 1005.75 1005.41 1005.26 1005.14 1005.00 1004.78 1004.49 1004.55 1004.51 1004.79 1005.21 1005.80 1006.09 1006.31 1006.44 1006.69 1007.03
1016.10 1015.78 1015.38 1014.85 1014.07 1013.79 1013.47 1013.42 1013.19 1012.89 1012.44 1011.98 1011.47 1010.93 1010.43 1010.00 1009.45 1009.01 1008.63 1008.17 1007.59 1007.23 1006.53 1005.91 1005.54 1005.04 1004.25 1003.97 1003.90 1003.84 1003.88 1003.92 1003.85 1003.81 1003.86 1003.75 1003.93 1004.36 1004.89 1005.40 1005.76 1005.98 1006.44
1015.42 1014.82 1014.23 1013.82 1013.19 1012.71 1012.46 1012.43 1012.23 1012.28 1011.98 1011.49 1010.93 1010.33 1009.73 1009.22 1008.75 1008.08 1007.34 1006.90 1006.10 1005.43 1004.85 1004.35 1004.00 1003.56 1002.99 1002.49 1002.24 1002.09 1001.96 1002.10 1002.43 1002.48 1002.60 1002.64 1002.72 1002.99 1003.42 1003.89 1004.40 1004.87 1005.37
Thickness
5590 5588 5582 5576 5571 5564 5558 5552 5548 5544 5538 5533 5528 5522 5517 5512 5507 5504 5499 5494 5489 5484 5482 5478 5474 5471 5469 5471 5469 5472 5476 5479 5478 5489 5525 5557 5577 5592 5606 5611 5623 5632 5639
5584 5582 5576 5570 5562 5554 5549 5544 5540 5536 5533 5527 5522 5516 5509 5503 5497 5492 5487 5484 5479 5473 5470 5467 5463 5459 5456 5455 5457 5456 5460 5465 5465 5469 5490 5542 5572 5583 5594 5607 5615 5627 5633
5573 5574 5571 5564 5553 5545 5539 5535 5530 5527 5524 5520 5515 5508 5501 5494 5489 5483 5475 5472 5469 5464 5458 5454 5449 5444 5441 5439 5440 5444 5444 5450 5455 5457 5466 5500 5542 5565 5586 5597 5603 5615 5629
5565 5564 5562 5553 5544 5536 5530 5527 5523 5518 5515 5510 5503 5496 5488 5483 5479 5472 5465 5458 5454 5451 5447 5442 5436 5430 5426 5424 5425 5432 5437 5437 5444 5451 5465 5478 5498 5528 5575 5586 5595 5605 5619
5560 5557 5551 5544 5538 5529 5523 5518 5512 5507 5503 5499 5495 5487 5478 5473 5469 5463 5454 5448 5444 5438 5433 5428 5423 5417 5413 5413 5414 5419 5428 5431 5436 5441 5453 5469 5487 5501 5523 5572 5582 5594 5604
5550 5546 5542 5535 5525 5518 5514 5512 5506 5497 5491 5486 5483 5477 5469 5462 5459 5452 5446 5439 5432 5426 5419 5414 5409 5406 5403 5404 5406 5410 5416 5426 5428 5438 5447 5456 5467 5488 5506 5528 5572 5587 5590
5537 5531 5525 5517 5511 5504 5498 5495 5491 5486 5480 5476 5471 5465 5458 5454 5448 5443 5438 5432 5426 5417 5408 5401 5396 5395 5395 5395 5398 5402 5409 5416 5423 5428 5439 5449 5460 5470 5484 5505 5541 5571 5584
5525 5519 5511 5503 5496 5490 5486 5482 5476 5473 5470 5463 5458 5454 5450 5444 5438 5434 5429 5425 5417 5409 5401 5391 5386 5385 5386 5386 5390 5396 5402 5407 5413 5424 5429 5443 5454 5458 5474 5491 5513 5538 5573
5516 5508 5500 5492 5484 5476 5473 5468 5463 5459 5457 5451 5447 5443 5439 5435 5430 5425 5421 5417 5409 5401 5394 5384 5377 5377 5378 5379 5382 5388 5397 5406 5410 5415 5427 5433 5442 5448 5464 5477 5497 5510 5546
5497 5489 5484 5477 5474 5469 5463 5456 5451 5445 5442 5438 5434 5432 5425 5422 5421 5417 5412 5406 5401 5393 5384 5377 5370 5369 5371 5373 5376 5381 5388 5398 5408 5414 5419 5424 5430 5443 5455 5464 5479 5502 5519
5483 5478 5471 5466 5460 5455 5449 5444 5439 5434 5429 5425 5421 5417 5415 5412 5409 5406 5402 5398 5390 5385 5377 5371 5364 5363 5365 5367 5370 5375 5380 5389 5397 5403 5410 5418 5424 5433 5445 5457 5469 5483 5503
5471 5467 5463 5456 5449 5442 5436 5432 5427 5422 5417 5413 5408 5406 5401 5399 5396 5393 5391 5387 5381 5375 5370 5365 5359 5357 5359 5361 5364 5369 5374 5381 5389 5395 5400 5408 5414 5426 5437 5450 5462 5477 5491
5460 5456 5448 5442 5436 5429 5424 5419 5414 5410 5405 5399 5396 5391 5388 5385 5384 5381 5378 5376 5372 5367 5361 5359 5354 5352 5354 5354 5358 5363 5368 5374 5380 5386 5392 5403 5410 5416 5426 5444 5455 5466 5482
5440 5433 5427 5428 5424 5418 5411 5406 5401 5396 5390 5384 5380 5377 5374 5372 5370 5367 5364 5362 5363 5360 5354 5352 5349 5347 5349 5350 5354 5358 5363 5368 5373 5379 5388 5391 5399 5404 5419 5432 5445 5456 5469
5428 5422 5418 5413 5407 5401 5396 5391 5386 5380 5376 5370 5366 5363 5361 5359 5355 5352 5351 5350 5350 5349 5347 5344 5343 5341 5343 5346 5349 5353 5358 5364 5371 5376 5375 5384 5393 5400 5414 5424 5434 5446 5461
5415 5404 5398 5394 5390 5387 5382 5380 5375 5368 5361 5356 5352 5349 5346 5343 5339 5337 5335 5335 5335 5335 5335 5335 5336 5335 5336 5340 5345 5351 5355 5361 5368 5374 5379 5382 5388 5400 5408 5419 5427 5438 5454
5393 5388 5384 5379 5377 5373 5367 5362 5357 5349 5342 5339 5335 5333 5329 5325 5321 5319 5319 5319 5319 5320 5322 5323 5325 5327 5327 5332 5338 5345 5351 5357 5364 5371 5374 5376 5385 5394 5400 5408 5419 5429 5444
5380 5375 5367 5362 5361 5356 5350 5346 5339 5332 5328 5323 5321 5316 5310 5307 5303 5301 5301 5302 5303 5305 5306 5309 5311 5314 5318 5322 5329 5336 5344 5350 5359 5368 5373 5376 5381 5388 5393 5398 5408 5419 5433
5368 5356 5352 5348 5345 5339 5334 5328 5321 5314 5307 5304 5303 5298 5290 5286 5283 5281 5280 5280 5280 5284 5288 5293 5297 5300 5307 5311 5318 5325 5334 5342 5351 5360 5369 5374 5378 5381 5389 5394 5401 5410 5421
5349 5347 5339 5329 5323 5324 5312 5303 5302 5298 5292 5292 5288 5281 5270 5263 5259 5258 5257 5256 5256 5261 5266 5275 5281 5287 5295 5302 5309 5317 5324 5333 5342 5352 5360 5369 5373 5377 5384 5391 5398 5406 5417
5336 5328 5320 5315 5311 5305 5290 5286 5282 5276 5276 5273 5268 5261 5251 5242 5237 5237 5234 5234 5235 5239 5244 5254 5265 5272 5279 5290 5299 5308 5317 5326 5335 5346 5356 5365 5372 5378 5385 5391 5395 5400 5402
5322 5314 5301 5301 5300 5292 5272 5267 5260 5258 5255 5252 5247 5240 5233 5226 5222 5220 5219 5218 5218 5220 5228 5236 5250 5260 5269 5280 5291 5301 5312 5321 5331 5342 5350 5358 5367 5376 5381 5387 5393 5397 5401
5307 5303 5293 5293 5291 5275 5258 5248 5246 5240 5238 5234 5229 5224 5219 5214 5210 5206 5206 5205 5207 5208 5215 5226 5239 5251 5261 5272 5283 5295 5307 5319 5329 5338 5345 5353 5361 5370 5378 5386 5392 5394 5400
5293 5288 5280 5273 5269 5262 5251 5236 5231 5225 5221 5219 5215 5210 5206 5203 5201 5199 5198 5198 5198 5199 5206 5217 5229 5242 5255 5267 5277 5287 5297 5309 5323 5332 5342 5350 5356 5362 5368 5376 5386 5395 5402
5281 5275 5266 5260 5258 5249 5241 5230 5220 5214 5212 5208 5202 5197 5192 5189 5190 5190 5188 5189 5193 5195 5203 5214 5225 5237 5253 5264 5275 5284 5292 5301 5312 5323 5332 5343 5352 5358 5363 5367 5374 5383 5389
5264 5261 5256 5247 5244 5239 5232 5224 5212 5206 5202 5197 5193 5186 5184 5182 5182 5184 5189 5189 5195 5202 5211 5220 5229 5241 5255 5266 5277 5287 5297 5304 5311 5320 5328 5337 5346 5354 5359 5364 5368 5372 5378